Address 0xff10be91e2717c896ed0ce172c988432d0a0e660 5

Overview

Balance:
36.893506669105190513 BNB

Token:
My Name Tag:
Not Available

Txn Hash
Block
From
To
Value [Txn Fee]
0x447585fd947ccf00ebe1c26550b419f7dfa592ae454e650445fc8ea3d03d82a8107519542021-07-20 8:50:2711 days 9 mins ago0xff10be91e2717c896ed0ce172c988432d0a0e660OUT 0x94509f9a2a1d3582a120bb282e0bb01535fbfe7f0 BNB0.00028551
0x3aa206e1aa74be671f5f3f119c9cf30464caf71ff77e564a92b29b432a43041e107230502021-07-19 8:44:3612 days 15 mins ago0xff10be91e2717c896ed0ce172c988432d0a0e660OUT 0x94509f9a2a1d3582a120bb282e0bb01535fbfe7f0 BNB0.00028551
0xa98f11aac5e669599be83a50c920c65b67adb67b59284185ed351af41fbfa78a107229702021-07-19 8:40:3612 days 19 mins ago0xff10be91e2717c896ed0ce172c988432d0a0e660OUT 0x94509f9a2a1d3582a120bb282e0bb01535fbfe7f0 BNB0.00028551
0x5a8645b2548cabde1dc2756cc5080842d73f9970a077dabba2af6ffa8441c8f3107205442021-07-19 6:39:1812 days 2 hrs ago0xff10be91e2717c896ed0ce172c988432d0a0e660OUT Contract Creation0 BNB0.00854616
0xfd6b0bca790341936eb3fb1caaf7db22e07057e731c876fe8198943e94f20ee1107203012021-07-19 6:27:0912 days 2 hrs ago0xff10be91e2717c896ed0ce172c988432d0a0e660OUT Contract Creation0 BNB0.0256599
0x50275ea5c468aebb9f38fdb8ef79065fac79ff8cd0f1cb808b55f02e83b86fe0106386032021-07-16 9:57:5514 days 23 hrs ago0xff10be91e2717c896ed0ce172c988432d0a0e660OUT 0x94509f9a2a1d3582a120bb282e0bb01535fbfe7f0 BNB0.00028551
0xda8aac003f81d3925b748b47238def8cba3388db9ed92f2c2e176901b08dca54106377532021-07-16 9:15:2514 days 23 hrs ago0xff10be91e2717c896ed0ce172c988432d0a0e660OUT 0x94509f9a2a1d3582a120bb282e0bb01535fbfe7f0 BNB0.00028563
0xec615ec4ba7ad58f54c5e8a374008606dffaf739e929563e322eef3e4ceddcbf106365472021-07-16 8:15:0715 days 44 mins ago0xff10be91e2717c896ed0ce172c988432d0a0e660OUT 0x94509f9a2a1d3582a120bb282e0bb01535fbfe7f0 BNB0.00028551
0x1074ef644eb2ff31ec0496cffb1f19ca9a79d11b677da234e2e3c1c576c3d5b6106073602021-07-15 7:55:1716 days 1 hr ago0xff10be91e2717c896ed0ce172c988432d0a0e660OUT 0x94509f9a2a1d3582a120bb282e0bb01535fbfe7f0 BNB0.00028563
0xb1c6b63fe4235057b784de74fb4aff01c3b53413f467b7094eb64bf3a1fa5610106067482021-07-15 7:24:4116 days 1 hr ago0xff10be91e2717c896ed0ce172c988432d0a0e660OUT 0x94509f9a2a1d3582a120bb282e0bb01535fbfe7f0 BNB0.00028563
0xb868bf43c7b0f762563ded64184e43a6ca7c83d16aac754154adf25eee6425ef106061612021-07-15 6:55:2016 days 2 hrs ago0xff10be91e2717c896ed0ce172c988432d0a0e660OUT 0x0c738311a65383d88ff5965da616a52f7b910f460 BNB0.0064315
0xe277ccf7267db85a05913e05ae5ba2e11db2af9380bda732af822f15b59a3dcd106058842021-07-15 6:41:2916 days 2 hrs ago0xff10be91e2717c896ed0ce172c988432d0a0e660OUT 0x0c738311a65383d88ff5965da616a52f7b910f460 BNB0.00605573
0x8c2afc7dd5cec910b4d8185c363304e0862b1d9cf7a783138d3e58ca88319c52106058442021-07-15 6:39:2916 days 2 hrs ago0xff10be91e2717c896ed0ce172c988432d0a0e660OUT 0x0c738311a65383d88ff5965da616a52f7b910f460 BNB0.00710507
0x62428b5b142e22f2f2dbbbb6d1a378d891e6f2c6447b9c4d281d6b414337511f106057742021-07-15 6:35:5916 days 2 hrs ago0xff10be91e2717c896ed0ce172c988432d0a0e660OUT 0x0c738311a65383d88ff5965da616a52f7b910f460 BNB0.00748783
0x4f777f0fac7951f6948bee877a8459c0c31aa24439e3b480e4c3f5c5c4e882c4106057462021-07-15 6:34:3516 days 2 hrs ago0xff10be91e2717c896ed0ce172c988432d0a0e660OUT 0x0c738311a65383d88ff5965da616a52f7b910f460 BNB0.00745729
0x10416a4429e194abcb08eeeec5428e814233301fbe6003c271b57e9a0101cb3e106057192021-07-15 6:33:1416 days 2 hrs ago0xff10be91e2717c896ed0ce172c988432d0a0e660OUT 0x0c738311a65383d88ff5965da616a52f7b910f460 BNB0.00672665
0x9d6624bc91a374973bcfe89ac3a055ef9e7b21555cb551fa5257f2b389a430e1106057062021-07-15 6:32:3516 days 2 hrs ago0xff10be91e2717c896ed0ce172c988432d0a0e660OUT 0x0c738311a65383d88ff5965da616a52f7b910f460 BNB0.00719994
0xf99bd57c67c2ee83b456f4c089e7e68fd44866e2fb54b2ea066c0ec5c9e97ca5106056912021-07-15 6:31:5016 days 2 hrs ago0xff10be91e2717c896ed0ce172c988432d0a0e660OUT 0x0c738311a65383d88ff5965da616a52f7b910f460 BNB0.00780692
0x0a1df401a8eb129ab47bcad258a403ce5318a0d6116fb7dd7cd33c083f9ec6b3106056682021-07-15 6:30:4116 days 2 hrs ago0xff10be91e2717c896ed0ce172c988432d0a0e660OUT 0x0c738311a65383d88ff5965da616a52f7b910f460 BNB0.00603963
0xb379f3dd397497ac9c9210af706990731528cd3bdc6ce657367f9526531b3d04106056392021-07-15 6:29:1416 days 2 hrs ago0xff10be91e2717c896ed0ce172c988432d0a0e660OUT 0x0c738311a65383d88ff5965da616a52f7b910f460 BNB0.00584824
0x7da82f7d4b18748aea6c80738e92d9e88d6087a0da728793244a96afed59ad2b106056182021-07-15 6:28:1116 days 2 hrs ago0xff10be91e2717c896ed0ce172c988432d0a0e660OUT 0x0c738311a65383d88ff5965da616a52f7b910f460 BNB0.00533801
0x515f975bab6841371b0fe9f9a5debf6413842c850e50d7fccc12f2b98ff31a10106056052021-07-15 6:27:3216 days 2 hrs ago0xff10be91e2717c896ed0ce172c988432d0a0e660OUT 0x0c738311a65383d88ff5965da616a52f7b910f460 BNB0.00635778
0xb15d84ac34c44eeb9ff1c2b3012dc67d9344922aa12c603fe4aaaedbafcc082b106056002021-07-15 6:27:1716 days 2 hrs ago0xff10be91e2717c896ed0ce172c988432d0a0e660OUT 0x73c025ec0d9deebc74eed5c4077f01a7214ef0f00 BNB0.00043968
0x2d140fd3212c3c0fcd981a005c8ec1ca10666e8f2130992153af17cc068b5ee4105774542021-07-14 6:59:2317 days 2 hrs ago0xff10be91e2717c896ed0ce172c988432d0a0e660OUT 0x28f86e1eadae75e9c963f6b448e2217ae2c6ce330 BNB0.00051199
0x55e0d79022221c2ec8049410b1aedd3f1195e39876056ebf6792c2684722f13f105774312021-07-14 6:58:1417 days 2 hrs ago0xff10be91e2717c896ed0ce172c988432d0a0e660OUT 0x0be6c9a1037cdfbb013a73ca361e84662278d5510 BNB0.00051184
[ Download CSV Export 
Latest 6 internal transactions
Parent Txn Hash Block From To Value
0x06d9792c89635585c1f35322216fce469f01317541dc57b7ab4d58a467091944101266472021-06-28 10:48:1632 days 22 hrs ago 0x1e793cb326df7335540c0c965c502856262a07f60xff10be91e2717c896ed0ce172c988432d0a0e6602.686699177348191797 BNB
0x51567e812e655999550216e5e1fddb83400e2bde744492f475b8015687959bf2101259552021-06-28 10:13:4032 days 22 hrs ago 0x1e793cb326df7335540c0c965c502856262a07f60xff10be91e2717c896ed0ce172c988432d0a0e66050 BNB
0xfeedd9860345d097c93dae18060bbaf9ef147d2d48b080ace06f64867975160d97595552021-06-15 16:53:1145 days 16 hrs ago 0xcde540d7eafe93ac5fe6233bee57e1270d3e330f0xff10be91e2717c896ed0ce172c988432d0a0e66017.175075901756998716 BNB
0xc6f8e5c16a02dfbb4b09a853081878ab9648840691ce69f4d540685040b6f31082269162021-04-23 9:42:0198 days 23 hrs ago 0x65cff9f8cee137a6623ec668d053817ef905423a0xff10be91e2717c896ed0ce172c988432d0a0e6600.00001 BNB
0x42ff72d8f5a3a56cb5a18550e712eb61df7f3a257cfbf75c479ebcaea7526ef782266062021-04-23 9:26:3198 days 23 hrs ago 0x65cff9f8cee137a6623ec668d053817ef905423a0xff10be91e2717c896ed0ce172c988432d0a0e6600.05 BNB
0xaba7ccaebd5f44cb8388ce2dde8465f3dfc8f2dd6355f5ba8abeb10173400ec282248222021-04-23 7:57:1999 days 1 hr ago 0x583be3bbbf1f77c67390cb0248a60438a221cd080xff10be91e2717c896ed0ce172c988432d0a0e6600.05 BNB
[ Download CSV Export 
Loading

Contract Name:
0 BNB

Compiler Version
0

Optimization Enabled:
0 BNB

Other Settings:
-NA-
Block Transaction Gas Used Reward
Age Block Fee Address BC Fee Address Voting Power Jailed Incoming
Block Uncle Number Difficulty Gas Used Reward
Loading